Year,Month,Day,Hour,Minute,Value (Times are PST for temperature in C)
2021,06,07,00,00,8.10
2021,06,07,00,01,8.00
2021,06,07,00,02,8.00
2021,06,07,00,03,8.00
2021,06,07,00,04,8.00
2021,06,07,00,05,8.00
2021,06,07,00,06,8.00
2021,06,07,00,07,8.00
2021,06,07,00,08,8.00
2021,06,07,00,09,8.00
2021,06,07,00,10,8.00
2021,06,07,00,11,8.00
2021,06,07,00,12,8.00
2021,06,07,00,13,8.00
2021,06,07,00,14,8.00
2021,06,07,00,15,7.90
2021,06,07,00,16,7.90
2021,06,07,00,17,7.90
2021,06,07,00,18,7.90
2021,06,07,00,19,7.90
2021,06,07,00,20,7.90
2021,06,07,00,21,7.90
2021,06,07,00,22,7.80
2021,06,07,00,23,7.80
2021,06,07,00,24,7.80
2021,06,07,00,25,7.80
2021,06,07,00,26,7.80
2021,06,07,00,27,7.80
2021,06,07,00,28,7.80
2021,06,07,00,29,7.80
2021,06,07,00,30,7.80
2021,06,07,00,31,7.80
2021,06,07,00,32,7.80
2021,06,07,00,33,7.80
2021,06,07,00,34,7.80
2021,06,07,00,35,7.80
2021,06,07,00,36,7.80
2021,06,07,00,37,7.70
2021,06,07,00,38,7.70
2021,06,07,00,39,7.70
2021,06,07,00,40,7.70
2021,06,07,00,41,7.70
2021,06,07,00,42,7.60
2021,06,07,00,43,7.60
2021,06,07,00,44,7.60
2021,06,07,00,45,7.60
2021,06,07,00,46,7.60
2021,06,07,00,47,7.50
2021,06,07,00,48,7.50
2021,06,07,00,49,7.50
2021,06,07,00,50,7.50
2021,06,07,00,51,7.40
2021,06,07,00,52,7.40
2021,06,07,00,53,7.40
2021,06,07,00,54,7.40
2021,06,07,00,55,7.40
2021,06,07,00,56,7.40
2021,06,07,00,57,7.30
2021,06,07,00,58,7.30
2021,06,07,00,59,7.30
2021,06,07,01,00,7.30
2021,06,07,01,01,7.30
2021,06,07,01,02,7.30
2021,06,07,01,03,7.30
2021,06,07,01,04,7.30
2021,06,07,01,05,7.30
2021,06,07,01,06,7.30
2021,06,07,01,07,7.30
2021,06,07,01,08,7.30
2021,06,07,01,09,7.20
2021,06,07,01,10,7.20
2021,06,07,01,11,7.20
2021,06,07,01,12,7.20
2021,06,07,01,13,7.20
2021,06,07,01,14,7.20
2021,06,07,01,15,7.20
2021,06,07,01,16,7.20
2021,06,07,01,17,7.10
2021,06,07,01,18,7.10
2021,06,07,01,19,7.10
2021,06,07,01,20,7.10
2021,06,07,01,21,7.10
2021,06,07,01,22,7.00
2021,06,07,01,23,7.00
2021,06,07,01,24,7.00
2021,06,07,01,25,7.00
2021,06,07,01,26,6.90
2021,06,07,01,27,6.90
2021,06,07,01,28,6.90
2021,06,07,01,29,6.90
2021,06,07,01,30,6.80
2021,06,07,01,31,6.80
2021,06,07,01,32,6.80
2021,06,07,01,33,6.80
2021,06,07,01,34,6.80
2021,06,07,01,35,6.80
2021,06,07,01,36,6.80
2021,06,07,01,37,6.70
2021,06,07,01,38,6.70
2021,06,07,01,39,6.70
2021,06,07,01,40,6.70
2021,06,07,01,41,6.70
2021,06,07,01,42,6.70
2021,06,07,01,43,6.70
2021,06,07,01,44,6.70
2021,06,07,01,45,6.70
2021,06,07,01,46,6.70
2021,06,07,01,47,6.70
2021,06,07,01,48,6.60
2021,06,07,01,49,6.60
2021,06,07,01,50,6.60
2021,06,07,01,51,6.60
2021,06,07,01,52,6.60
2021,06,07,01,53,6.60
2021,06,07,01,54,6.60
2021,06,07,01,55,6.60
2021,06,07,01,56,6.60
2021,06,07,01,57,6.50
2021,06,07,01,58,6.40
2021,06,07,01,59,6.40
2021,06,07,02,00,6.40
2021,06,07,02,01,6.40
2021,06,07,02,02,6.40
2021,06,07,02,03,6.40
2021,06,07,02,04,6.40
2021,06,07,02,05,6.40
2021,06,07,02,06,6.30
2021,06,07,02,07,6.30
2021,06,07,02,08,6.30
2021,06,07,02,09,6.30
2021,06,07,02,10,6.30
2021,06,07,02,11,6.30
2021,06,07,02,12,6.30
2021,06,07,02,13,6.20
2021,06,07,02,14,6.20
2021,06,07,02,15,6.20
2021,06,07,02,16,6.20
2021,06,07,02,17,6.20
2021,06,07,02,18,6.20
2021,06,07,02,19,6.20
2021,06,07,02,20,6.20
2021,06,07,02,21,6.10
2021,06,07,02,22,6.10
2021,06,07,02,23,6.10
2021,06,07,02,24,6.10
2021,06,07,02,25,6.00
2021,06,07,02,26,6.00
2021,06,07,02,27,6.00
2021,06,07,02,28,6.00
2021,06,07,02,29,6.00
2021,06,07,02,30,6.00
2021,06,07,02,31,5.90
2021,06,07,02,32,5.90
2021,06,07,02,33,5.90
2021,06,07,02,34,5.90
2021,06,07,02,35,5.90
2021,06,07,02,36,5.90
2021,06,07,02,37,5.90
2021,06,07,02,38,5.90
2021,06,07,02,39,5.80
2021,06,07,02,40,5.80
2021,06,07,02,41,5.80
2021,06,07,02,42,5.80
2021,06,07,02,43,5.80
2021,06,07,02,44,5.80
2021,06,07,02,45,5.80
2021,06,07,02,46,5.80
2021,06,07,02,47,5.70
2021,06,07,02,48,5.70
2021,06,07,02,49,5.70
2021,06,07,02,50,5.70
2021,06,07,02,51,5.70
2021,06,07,02,52,5.70
2021,06,07,02,53,5.70
2021,06,07,02,54,5.60
2021,06,07,02,55,5.60
2021,06,07,02,56,5.60
2021,06,07,02,57,5.60
2021,06,07,02,58,5.60
2021,06,07,02,59,5.60
2021,06,07,03,00,5.60
2021,06,07,03,01,5.60
2021,06,07,03,02,5.60
2021,06,07,03,03,5.60
2021,06,07,03,04,5.60
2021,06,07,03,05,5.60
2021,06,07,03,06,5.60
2021,06,07,03,07,5.50
2021,06,07,03,08,5.50
2021,06,07,03,09,5.50
2021,06,07,03,10,5.50
2021,06,07,03,11,5.50
2021,06,07,03,12,5.50
2021,06,07,03,13,5.60
2021,06,07,03,14,5.60
2021,06,07,03,15,5.60
2021,06,07,03,16,5.60
2021,06,07,03,17,5.60
2021,06,07,03,18,5.60
2021,06,07,03,19,5.60
2021,06,07,03,20,5.60
2021,06,07,03,21,5.60
2021,06,07,03,22,5.60
2021,06,07,03,23,5.60
2021,06,07,03,24,5.60
2021,06,07,03,25,5.60
2021,06,07,03,26,5.60
2021,06,07,03,27,5.60
2021,06,07,03,28,5.60
2021,06,07,03,29,5.60
2021,06,07,03,30,5.50
2021,06,07,03,31,5.50
2021,06,07,03,32,5.50
2021,06,07,03,33,5.50
2021,06,07,03,34,5.50
2021,06,07,03,35,5.50
2021,06,07,03,36,5.50
2021,06,07,03,37,5.50
2021,06,07,03,38,5.40
2021,06,07,03,39,5.40
2021,06,07,03,40,5.40
2021,06,07,03,41,5.40
2021,06,07,03,42,5.40
2021,06,07,03,43,5.40
2021,06,07,03,44,5.40
2021,06,07,03,45,5.40
2021,06,07,03,46,5.40
2021,06,07,03,47,5.40
2021,06,07,03,48,5.40
2021,06,07,03,49,5.50
2021,06,07,03,50,5.50
2021,06,07,03,51,5.50
2021,06,07,03,52,5.50
2021,06,07,03,53,5.50
2021,06,07,03,54,5.50
2021,06,07,03,55,5.50
2021,06,07,03,56,5.50
2021,06,07,03,57,5.50
2021,06,07,03,58,5.50
2021,06,07,03,59,5.50
2021,06,07,04,00,5.40
2021,06,07,04,01,5.40
2021,06,07,04,02,5.40
2021,06,07,04,03,5.40
2021,06,07,04,04,5.40
2021,06,07,04,05,5.40
2021,06,07,04,06,5.30
2021,06,07,04,07,5.30
2021,06,07,04,08,5.30
2021,06,07,04,09,5.30
2021,06,07,04,10,5.30
2021,06,07,04,11,5.30
2021,06,07,04,12,5.30
2021,06,07,04,13,5.30
2021,06,07,04,14,5.30
2021,06,07,04,15,5.30
2021,06,07,04,16,5.30
2021,06,07,04,17,5.30
2021,06,07,04,18,5.30
2021,06,07,04,19,5.30
2021,06,07,04,20,5.30
2021,06,07,04,21,5.30
2021,06,07,04,22,5.20
2021,06,07,04,23,5.20
2021,06,07,04,24,5.20
2021,06,07,04,25,5.20
2021,06,07,04,26,5.20
2021,06,07,04,27,5.20
2021,06,07,04,28,5.20
2021,06,07,04,29,5.20
2021,06,07,04,30,5.20
2021,06,07,04,31,5.20
2021,06,07,04,32,5.10
2021,06,07,04,33,5.10
2021,06,07,04,34,5.10
2021,06,07,04,35,5.10
2021,06,07,04,36,5.10
2021,06,07,04,37,5.10
2021,06,07,04,38,5.10
2021,06,07,04,39,5.10
2021,06,07,04,40,5.10
2021,06,07,04,41,5.10
2021,06,07,04,42,5.10
2021,06,07,04,43,5.00
2021,06,07,04,44,4.90
2021,06,07,04,45,4.90
2021,06,07,04,46,4.90
2021,06,07,04,47,4.90
2021,06,07,04,48,4.90
2021,06,07,04,49,4.90
2021,06,07,04,50,4.90
2021,06,07,04,51,4.90
2021,06,07,04,52,4.90
2021,06,07,04,53,4.90
2021,06,07,04,54,4.90
2021,06,07,04,55,4.90
2021,06,07,04,56,4.90
2021,06,07,04,57,4.90
2021,06,07,04,58,4.90
2021,06,07,04,59,4.90
2021,06,07,05,00,4.90
2021,06,07,05,01,4.90
2021,06,07,05,02,4.90
2021,06,07,05,03,4.90
2021,06,07,05,04,4.90
2021,06,07,05,05,4.90
2021,06,07,05,06,4.90
2021,06,07,05,07,4.90
2021,06,07,05,08,4.90
2021,06,07,05,09,4.80
2021,06,07,05,10,4.80
2021,06,07,05,11,4.80
2021,06,07,05,12,4.80
2021,06,07,05,13,4.80
2021,06,07,05,14,4.70
2021,06,07,05,15,4.70
2021,06,07,05,16,4.70
2021,06,07,05,17,4.70
2021,06,07,05,18,4.70
2021,06,07,05,19,4.70
2021,06,07,05,20,4.60
2021,06,07,05,21,4.60
2021,06,07,05,22,4.60
2021,06,07,05,23,4.60
2021,06,07,05,24,4.60
2021,06,07,05,25,4.60
2021,06,07,05,26,4.60
2021,06,07,05,27,4.60
2021,06,07,05,28,4.60
2021,06,07,05,29,4.60
2021,06,07,05,30,4.60
2021,06,07,05,31,4.60
2021,06,07,05,32,4.60
2021,06,07,05,33,4.60
2021,06,07,05,34,4.60
2021,06,07,05,35,4.60
2021,06,07,05,36,4.60
2021,06,07,05,37,4.60
2021,06,07,05,38,4.60
2021,06,07,05,39,4.60
2021,06,07,05,40,4.60
2021,06,07,05,41,4.60
2021,06,07,05,42,4.60
2021,06,07,05,43,4.60
2021,06,07,05,44,4.60
2021,06,07,05,45,4.60
2021,06,07,05,46,4.60
2021,06,07,05,47,4.60
2021,06,07,05,48,4.60
2021,06,07,05,49,4.60
2021,06,07,05,50,4.60
2021,06,07,05,51,4.60
2021,06,07,05,52,4.60
2021,06,07,05,53,4.60
2021,06,07,05,54,4.60
2021,06,07,05,55,4.60
2021,06,07,05,56,4.60
2021,06,07,05,57,4.60
2021,06,07,05,58,4.70
2021,06,07,05,59,4.70
2021,06,07,06,00,4.70
2021,06,07,06,01,4.80
2021,06,07,06,02,4.80
2021,06,07,06,03,4.80
2021,06,07,06,04,4.80
2021,06,07,06,05,4.90
2021,06,07,06,06,4.90
2021,06,07,06,07,4.90
2021,06,07,06,08,4.90
2021,06,07,06,09,4.90
2021,06,07,06,10,4.90
2021,06,07,06,11,5.00
2021,06,07,06,12,5.10
2021,06,07,06,13,5.10
2021,06,07,06,14,5.10
2021,06,07,06,15,5.10
2021,06,07,06,16,5.20
2021,06,07,06,17,5.20
2021,06,07,06,18,5.30
2021,06,07,06,19,5.30
2021,06,07,06,20,5.30
2021,06,07,06,21,5.40
2021,06,07,06,22,5.40
2021,06,07,06,23,5.50
2021,06,07,06,24,5.50
2021,06,07,06,25,5.50
2021,06,07,06,26,5.50
2021,06,07,06,27,5.60
2021,06,07,06,28,5.60
2021,06,07,06,29,5.60
2021,06,07,06,30,5.70
2021,06,07,06,31,5.70
2021,06,07,06,32,5.70
2021,06,07,06,33,5.70
2021,06,07,06,34,5.80
2021,06,07,06,35,5.90
2021,06,07,06,36,6.00
2021,06,07,06,37,6.00
2021,06,07,06,38,6.10
2021,06,07,06,39,6.20
2021,06,07,06,40,6.20
2021,06,07,06,41,6.20
2021,06,07,06,42,6.30
2021,06,07,06,43,6.30
2021,06,07,06,44,6.40
2021,06,07,06,45,6.40
2021,06,07,06,46,6.50
2021,06,07,06,47,6.60
2021,06,07,06,48,6.60
2021,06,07,06,49,6.60
2021,06,07,06,50,6.70
2021,06,07,06,51,6.70
2021,06,07,06,52,6.80
2021,06,07,06,53,6.90
2021,06,07,06,54,7.00
2021,06,07,06,55,7.10
2021,06,07,06,56,7.10
2021,06,07,06,57,7.20
2021,06,07,06,58,7.30
2021,06,07,06,59,7.30
2021,06,07,07,00,7.40
2021,06,07,07,01,7.50
2021,06,07,07,02,7.50
2021,06,07,07,03,7.60
2021,06,07,07,04,7.70
2021,06,07,07,05,7.70
2021,06,07,07,06,7.80
2021,06,07,07,07,7.80
2021,06,07,07,08,7.90
2021,06,07,07,09,7.90
2021,06,07,07,10,8.00
2021,06,07,07,11,8.00
2021,06,07,07,12,8.10
2021,06,07,07,13,8.20
2021,06,07,07,14,8.20
2021,06,07,07,15,8.30
2021,06,07,07,16,8.40
2021,06,07,07,17,8.40
2021,06,07,07,18,8.50
2021,06,07,07,19,8.50
2021,06,07,07,20,8.60
2021,06,07,07,21,8.60
2021,06,07,07,22,8.70
2021,06,07,07,23,8.70
2021,06,07,07,24,8.70
2021,06,07,07,25,8.70
2021,06,07,07,26,8.80
2021,06,07,07,27,8.80
2021,06,07,07,28,8.80
2021,06,07,07,29,8.80
2021,06,07,07,30,8.80
2021,06,07,07,31,8.80
2021,06,07,07,32,8.80
2021,06,07,07,33,8.80
2021,06,07,07,34,8.80
2021,06,07,07,35,8.80
2021,06,07,07,36,8.80
2021,06,07,07,37,8.80
2021,06,07,07,38,8.90
2021,06,07,07,39,8.90
2021,06,07,07,40,8.90
2021,06,07,07,41,9.00
2021,06,07,07,42,9.00
2021,06,07,07,43,9.00
2021,06,07,07,44,9.10
2021,06,07,07,45,9.10
2021,06,07,07,46,9.10
2021,06,07,07,47,9.20
2021,06,07,07,48,9.20
2021,06,07,07,49,9.20
2021,06,07,07,50,9.20
2021,06,07,07,51,9.20
2021,06,07,07,52,9.30
2021,06,07,07,53,9.40
2021,06,07,07,54,9.50
2021,06,07,07,55,9.50
2021,06,07,07,56,9.60
2021,06,07,07,57,9.70
2021,06,07,07,58,9.70
2021,06,07,07,59,9.80
2021,06,07,08,00,9.80
2021,06,07,08,01,9.80
2021,06,07,08,02,9.80
2021,06,07,08,03,9.80
2021,06,07,08,04,9.90
2021,06,07,08,05,9.90
2021,06,07,08,06,10.00
2021,06,07,08,07,10.10
2021,06,07,08,08,10.10
2021,06,07,08,09,10.20
2021,06,07,08,10,10.30
2021,06,07,08,11,10.30
2021,06,07,08,12,10.40
2021,06,07,08,13,10.40
2021,06,07,08,14,10.50
2021,06,07,08,15,10.60
2021,06,07,08,16,10.60
2021,06,07,08,17,10.70
2021,06,07,08,18,10.70
2021,06,07,08,19,10.70
2021,06,07,08,20,10.80
2021,06,07,08,21,10.80
2021,06,07,08,22,10.90
2021,06,07,08,23,10.90
2021,06,07,08,24,10.90
2021,06,07,08,25,10.90
2021,06,07,08,26,11.00
2021,06,07,08,27,11.10
2021,06,07,08,28,11.10
2021,06,07,08,29,11.20
2021,06,07,08,30,11.20
2021,06,07,08,31,11.20
2021,06,07,08,32,11.20
2021,06,07,08,33,11.20
2021,06,07,08,34,11.30
2021,06,07,08,35,11.30
2021,06,07,08,36,11.30
2021,06,07,08,37,11.20
2021,06,07,08,38,11.20
2021,06,07,08,39,11.20
2021,06,07,08,40,11.30
2021,06,07,08,41,11.30
2021,06,07,08,42,11.40
2021,06,07,08,43,11.40
2021,06,07,08,44,11.40
2021,06,07,08,45,11.40
2021,06,07,08,46,11.40
2021,06,07,08,47,11.40
2021,06,07,08,48,11.40
2021,06,07,08,49,11.40
2021,06,07,08,50,11.60
2021,06,07,08,51,11.60
2021,06,07,08,52,11.60
2021,06,07,08,53,11.60
2021,06,07,08,54,11.70
2021,06,07,08,55,11.80
2021,06,07,08,56,11.80
2021,06,07,08,57,11.80
2021,06,07,08,58,11.80
2021,06,07,08,59,11.80
2021,06,07,09,00,11.80
2021,06,07,09,01,11.80
2021,06,07,09,02,11.80
2021,06,07,09,03,11.80
2021,06,07,09,04,11.80
2021,06,07,09,05,11.80
2021,06,07,09,06,11.80
2021,06,07,09,07,11.80
2021,06,07,09,08,11.90
2021,06,07,09,09,12.00
2021,06,07,09,10,12.00
2021,06,07,09,11,12.10
2021,06,07,09,12,12.20
2021,06,07,09,13,12.30
2021,06,07,09,14,12.20
2021,06,07,09,15,12.00
2021,06,07,09,16,12.00
2021,06,07,09,17,12.00
2021,06,07,09,18,12.00
2021,06,07,09,19,11.90
2021,06,07,09,20,11.80
2021,06,07,09,21,11.80
2021,06,07,09,22,11.80
2021,06,07,09,23,11.70
2021,06,07,09,24,11.70
2021,06,07,09,25,11.80
2021,06,07,09,26,11.80
2021,06,07,09,27,11.80
2021,06,07,09,28,11.80
2021,06,07,09,29,11.90
2021,06,07,09,30,12.00
2021,06,07,09,31,12.00
2021,06,07,09,32,12.00
2021,06,07,09,33,12.00
2021,06,07,09,34,12.10
2021,06,07,09,35,12.10
2021,06,07,09,36,12.00
2021,06,07,09,37,12.00
2021,06,07,09,38,12.10
2021,06,07,09,39,12.10
2021,06,07,09,40,12.20
2021,06,07,09,41,12.30
2021,06,07,09,42,12.40
2021,06,07,09,43,12.50
2021,06,07,09,44,12.60
2021,06,07,09,45,12.60
2021,06,07,09,46,12.60
2021,06,07,09,47,12.70
2021,06,07,09,48,12.60
2021,06,07,09,49,12.50
2021,06,07,09,50,12.40
2021,06,07,09,51,12.40
2021,06,07,09,52,12.40
2021,06,07,09,53,12.40
2021,06,07,09,54,12.50
2021,06,07,09,55,12.50
2021,06,07,09,56,12.50
2021,06,07,09,57,12.50
2021,06,07,09,58,12.60
2021,06,07,09,59,12.60
2021,06,07,10,00,12.60
2021,06,07,10,01,12.50
2021,06,07,10,02,12.50
2021,06,07,10,03,12.60
2021,06,07,10,04,12.60
2021,06,07,10,05,12.70
2021,06,07,10,06,12.80
2021,06,07,10,07,12.80
2021,06,07,10,08,12.50
2021,06,07,10,09,12.40
2021,06,07,10,10,12.30
2021,06,07,10,11,12.30
2021,06,07,10,12,12.30
2021,06,07,10,13,12.30
2021,06,07,10,14,12.30
2021,06,07,10,15,12.30
2021,06,07,10,16,12.30
2021,06,07,10,17,12.30
2021,06,07,10,18,12.30
2021,06,07,10,19,12.30
2021,06,07,10,20,12.20
2021,06,07,10,21,12.10
2021,06,07,10,22,12.00
2021,06,07,10,23,12.00
2021,06,07,10,24,12.10
2021,06,07,10,25,12.30
2021,06,07,10,26,12.40
2021,06,07,10,27,12.50
2021,06,07,10,28,12.70
2021,06,07,10,29,12.80
2021,06,07,10,30,12.80
2021,06,07,10,31,12.90
2021,06,07,10,32,13.00
2021,06,07,10,33,13.10
2021,06,07,10,34,13.00
2021,06,07,10,35,13.00
2021,06,07,10,36,13.00
2021,06,07,10,37,13.00
2021,06,07,10,38,12.80
2021,06,07,10,39,12.80
2021,06,07,10,40,12.90
2021,06,07,10,41,13.00
2021,06,07,10,42,13.10
2021,06,07,10,43,13.30
2021,06,07,10,44,13.40
2021,06,07,10,45,13.30
2021,06,07,10,46,13.00
2021,06,07,10,47,13.00
2021,06,07,10,48,13.00
2021,06,07,10,49,13.00
2021,06,07,10,50,12.90
2021,06,07,10,51,12.80
2021,06,07,10,52,12.70
2021,06,07,10,53,12.60
2021,06,07,10,54,12.40
2021,06,07,10,55,12.10
2021,06,07,10,56,12.00
2021,06,07,10,57,11.90
2021,06,07,10,58,11.90
2021,06,07,10,59,12.00
2021,06,07,11,00,12.20
2021,06,07,11,01,12.30
2021,06,07,11,02,12.30
2021,06,07,11,03,12.40
2021,06,07,11,04,12.40
2021,06,07,11,05,12.30
2021,06,07,11,06,12.20
2021,06,07,11,07,12.20
2021,06,07,11,08,12.20
2021,06,07,11,09,12.20
2021,06,07,11,10,12.20
2021,06,07,11,11,12.10
2021,06,07,11,12,12.20
2021,06,07,11,13,12.30
2021,06,07,11,14,12.30
2021,06,07,11,15,12.20
2021,06,07,11,16,12.10
2021,06,07,11,17,12.10
2021,06,07,11,18,12.10
2021,06,07,11,19,12.20
2021,06,07,11,20,12.20
2021,06,07,11,21,12.20
2021,06,07,11,22,12.10
2021,06,07,11,23,12.10
2021,06,07,11,24,12.20
2021,06,07,11,25,12.30
2021,06,07,11,26,12.30
2021,06,07,11,27,12.40
2021,06,07,11,28,12.30
2021,06,07,11,29,12.40
2021,06,07,11,30,12.50
2021,06,07,11,31,12.50
2021,06,07,11,32,12.40
2021,06,07,11,33,12.30
2021,06,07,11,34,12.10
2021,06,07,11,35,12.10
2021,06,07,11,36,12.00
2021,06,07,11,37,12.10
2021,06,07,11,38,12.20
2021,06,07,11,39,12.30
2021,06,07,11,40,12.30
2021,06,07,11,41,12.20
2021,06,07,11,42,12.10
2021,06,07,11,43,12.10
2021,06,07,11,44,11.90
2021,06,07,11,45,11.80
2021,06,07,11,46,11.70
2021,06,07,11,47,11.50
2021,06,07,11,48,11.50
2021,06,07,11,49,11.60
2021,06,07,11,50,11.60
2021,06,07,11,51,11.60
2021,06,07,11,52,11.70
2021,06,07,11,53,11.80
2021,06,07,11,54,11.90
2021,06,07,11,55,12.00
2021,06,07,11,56,12.20
2021,06,07,11,57,12.30
2021,06,07,11,58,12.40
2021,06,07,11,59,12.50
2021,06,07,12,00,12.50
2021,06,07,12,01,12.50
2021,06,07,12,02,12.50
2021,06,07,12,03,12.30
2021,06,07,12,04,12.40
2021,06,07,12,05,12.50
2021,06,07,12,06,12.60
2021,06,07,12,07,12.60
2021,06,07,12,08,12.70
2021,06,07,12,09,12.70
2021,06,07,12,10,12.70
2021,06,07,12,11,12.70
2021,06,07,12,12,12.70
2021,06,07,12,13,12.70
2021,06,07,12,14,12.70
2021,06,07,12,15,12.50
2021,06,07,12,16,12.30
2021,06,07,12,17,12.20
2021,06,07,12,18,12.20
2021,06,07,12,19,12.30
2021,06,07,12,20,12.40
2021,06,07,12,21,12.50
2021,06,07,12,22,12.50
2021,06,07,12,23,12.60
2021,06,07,12,24,12.70
2021,06,07,12,25,12.60
2021,06,07,12,26,12.50
2021,06,07,12,27,12.30
2021,06,07,12,28,12.30
2021,06,07,12,29,12.40
2021,06,07,12,30,12.50
2021,06,07,12,31,12.60
2021,06,07,12,32,12.70
2021,06,07,12,33,12.80
2021,06,07,12,34,12.80
2021,06,07,12,35,12.80
2021,06,07,12,36,12.80
2021,06,07,12,37,12.80
2021,06,07,12,38,12.80
2021,06,07,12,39,12.80
2021,06,07,12,40,12.80
2021,06,07,12,41,12.80
2021,06,07,12,42,12.70
2021,06,07,12,43,12.70
2021,06,07,12,44,12.60
2021,06,07,12,45,12.50
2021,06,07,12,46,12.40
2021,06,07,12,47,12.20
2021,06,07,12,48,12.20
2021,06,07,12,49,12.10
2021,06,07,12,50,12.00
2021,06,07,12,51,11.90
2021,06,07,12,52,11.90
2021,06,07,12,53,11.90
2021,06,07,12,54,12.00
2021,06,07,12,55,12.00
2021,06,07,12,56,12.00
2021,06,07,12,57,12.00
2021,06,07,12,58,12.00
2021,06,07,12,59,12.00
2021,06,07,13,00,12.10
2021,06,07,13,01,12.00
2021,06,07,13,02,12.00
2021,06,07,13,03,11.90
2021,06,07,13,04,11.90
2021,06,07,13,05,11.80
2021,06,07,13,06,11.80
2021,06,07,13,07,11.80
2021,06,07,13,08,12.00
2021,06,07,13,09,12.00
2021,06,07,13,10,11.90
2021,06,07,13,11,12.00
2021,06,07,13,12,11.90
2021,06,07,13,13,11.90
2021,06,07,13,14,11.80
2021,06,07,13,15,12.00
2021,06,07,13,16,12.00
2021,06,07,13,17,12.00
2021,06,07,13,18,12.00
2021,06,07,13,19,12.10
2021,06,07,13,20,12.10
2021,06,07,13,21,12.20
2021,06,07,13,22,12.40
2021,06,07,13,23,12.50
2021,06,07,13,24,12.60
2021,06,07,13,25,12.60
2021,06,07,13,26,12.50
2021,06,07,13,27,12.30
2021,06,07,13,28,12.30
2021,06,07,13,29,12.10
2021,06,07,13,30,12.00
2021,06,07,13,31,12.10
2021,06,07,13,32,12.30
2021,06,07,13,33,12.30
2021,06,07,13,34,12.30
2021,06,07,13,35,12.40
2021,06,07,13,36,12.30
2021,06,07,13,37,12.30
2021,06,07,13,38,12.30
2021,06,07,13,39,12.50
2021,06,07,13,40,12.70
2021,06,07,13,41,12.90
2021,06,07,13,42,13.10
2021,06,07,13,43,13.20
2021,06,07,13,44,13.00
2021,06,07,13,45,13.00
2021,06,07,13,46,12.90
2021,06,07,13,47,12.90
2021,06,07,13,48,12.90
2021,06,07,13,49,13.10
2021,06,07,13,50,13.10
2021,06,07,13,51,13.20
2021,06,07,13,52,13.10
2021,06,07,13,53,13.10
2021,06,07,13,54,13.20
2021,06,07,13,55,13.30
2021,06,07,13,56,13.40
2021,06,07,13,57,13.50
2021,06,07,13,58,13.30
2021,06,07,13,59,13.40
2021,06,07,14,00,13.50
2021,06,07,14,01,13.70
2021,06,07,14,02,13.80
2021,06,07,14,03,13.90
2021,06,07,14,04,14.10
2021,06,07,14,05,14.20
2021,06,07,14,06,14.20
2021,06,07,14,07,14.10
2021,06,07,14,08,14.00
2021,06,07,14,09,14.00
2021,06,07,14,10,14.00
2021,06,07,14,11,13.80
2021,06,07,14,12,13.70
2021,06,07,14,13,13.60
2021,06,07,14,14,13.60
2021,06,07,14,15,13.70
2021,06,07,14,16,13.60
2021,06,07,14,17,13.50
2021,06,07,14,18,13.50
2021,06,07,14,19,13.40
2021,06,07,14,20,13.40
2021,06,07,14,21,13.30
2021,06,07,14,22,13.30
2021,06,07,14,23,13.30
2021,06,07,14,24,13.50
2021,06,07,14,25,13.50
2021,06,07,14,26,13.60
2021,06,07,14,27,13.70
2021,06,07,14,28,13.90
2021,06,07,14,29,13.90
2021,06,07,14,30,14.00
2021,06,07,14,31,14.10
2021,06,07,14,32,14.20
2021,06,07,14,33,14.20
2021,06,07,14,34,14.10
2021,06,07,14,35,13.90
2021,06,07,14,36,13.80
2021,06,07,14,37,13.80
2021,06,07,14,38,13.70
2021,06,07,14,39,13.60
2021,06,07,14,40,13.40
2021,06,07,14,41,13.20
2021,06,07,14,42,13.10
2021,06,07,14,43,13.10
2021,06,07,14,44,13.00
2021,06,07,14,45,13.00
2021,06,07,14,46,12.90
2021,06,07,14,47,12.80
2021,06,07,14,48,13.00
2021,06,07,14,49,13.10
2021,06,07,14,50,13.10
2021,06,07,14,51,13.10
2021,06,07,14,52,13.10
2021,06,07,14,53,13.20
2021,06,07,14,54,13.30
2021,06,07,14,55,13.30
2021,06,07,14,56,13.30
2021,06,07,14,57,13.30
2021,06,07,14,58,13.30
2021,06,07,14,59,13.30
2021,06,07,15,00,13.30
2021,06,07,15,01,13.40
2021,06,07,15,02,13.50
2021,06,07,15,03,13.60
2021,06,07,15,04,13.70
2021,06,07,15,05,13.70
2021,06,07,15,06,13.80
2021,06,07,15,07,13.90
2021,06,07,15,08,14.10
2021,06,07,15,09,14.20
2021,06,07,15,10,14.40
2021,06,07,15,11,14.40
2021,06,07,15,12,14.50
2021,06,07,15,13,14.60
2021,06,07,15,14,14.60
2021,06,07,15,15,14.70
2021,06,07,15,16,14.80
2021,06,07,15,17,14.80
2021,06,07,15,18,14.80
2021,06,07,15,19,14.90
2021,06,07,15,20,14.90
2021,06,07,15,21,14.80
2021,06,07,15,22,14.50
2021,06,07,15,23,14.30
2021,06,07,15,24,14.30
2021,06,07,15,25,14.40
2021,06,07,15,26,14.40
2021,06,07,15,27,14.50
2021,06,07,15,28,14.60
2021,06,07,15,29,14.50
2021,06,07,15,30,14.50
2021,06,07,15,31,14.60
2021,06,07,15,32,14.70
2021,06,07,15,33,14.70
2021,06,07,15,34,14.70
2021,06,07,15,35,14.80
2021,06,07,15,36,14.80
2021,06,07,15,37,14.80
2021,06,07,15,38,14.90
2021,06,07,15,39,14.90
2021,06,07,15,40,14.90
2021,06,07,15,41,14.80
2021,06,07,15,42,14.80
2021,06,07,15,43,14.80
2021,06,07,15,44,14.80
2021,06,07,15,45,14.80
2021,06,07,15,46,14.70
2021,06,07,15,47,14.60
2021,06,07,15,48,14.50
2021,06,07,15,49,14.40
2021,06,07,15,50,14.20
2021,06,07,15,51,14.20
2021,06,07,15,52,14.20
2021,06,07,15,53,14.30
2021,06,07,15,54,14.30
2021,06,07,15,55,14.30
2021,06,07,15,56,14.20
2021,06,07,15,57,14.30
2021,06,07,15,58,14.30
2021,06,07,15,59,14.40
2021,06,07,16,00,14.50
2021,06,07,16,01,14.60
2021,06,07,16,02,14.60
2021,06,07,16,03,14.60
2021,06,07,16,04,14.50
2021,06,07,16,05,14.30
2021,06,07,16,06,14.20
2021,06,07,16,07,14.30
2021,06,07,16,08,14.40
2021,06,07,16,09,14.50
2021,06,07,16,10,14.40
2021,06,07,16,11,14.50
2021,06,07,16,12,14.50
2021,06,07,16,13,14.40
2021,06,07,16,14,14.40
2021,06,07,16,15,14.40
2021,06,07,16,16,14.40
2021,06,07,16,17,14.30
2021,06,07,16,18,14.30
2021,06,07,16,19,14.30
2021,06,07,16,20,14.40
2021,06,07,16,21,14.50
2021,06,07,16,22,14.70
2021,06,07,16,23,14.80
2021,06,07,16,24,14.90
2021,06,07,16,25,14.90
2021,06,07,16,26,14.80
2021,06,07,16,27,14.70
2021,06,07,16,28,14.70
2021,06,07,16,29,14.80
2021,06,07,16,30,14.80
2021,06,07,16,31,14.90
2021,06,07,16,32,15.00
2021,06,07,16,33,15.00
2021,06,07,16,34,15.00
2021,06,07,16,35,14.90
2021,06,07,16,36,14.90
2021,06,07,16,37,14.90
2021,06,07,16,38,14.90
2021,06,07,16,39,15.00
2021,06,07,16,40,15.10
2021,06,07,16,41,15.20
2021,06,07,16,42,15.30
2021,06,07,16,43,15.30
2021,06,07,16,44,15.30
2021,06,07,16,45,15.20
2021,06,07,16,46,15.10
2021,06,07,16,47,14.90
2021,06,07,16,48,14.80
2021,06,07,16,49,14.60
2021,06,07,16,50,14.40
2021,06,07,16,51,14.30
2021,06,07,16,52,14.30
2021,06,07,16,53,14.30
2021,06,07,16,54,14.30
2021,06,07,16,55,14.30
2021,06,07,16,56,14.40
2021,06,07,16,57,14.50
2021,06,07,16,58,14.50
2021,06,07,16,59,14.50
2021,06,07,17,00,14.50
2021,06,07,17,01,14.40
2021,06,07,17,02,14.40
2021,06,07,17,03,14.50
2021,06,07,17,04,14.60
2021,06,07,17,05,14.60
2021,06,07,17,06,14.50
2021,06,07,17,07,14.40
2021,06,07,17,08,14.30
2021,06,07,17,09,14.30
2021,06,07,17,10,14.30
2021,06,07,17,11,14.40
2021,06,07,17,12,14.40
2021,06,07,17,13,14.50
2021,06,07,17,14,14.60
2021,06,07,17,15,14.70
2021,06,07,17,16,14.70
2021,06,07,17,17,14.70
2021,06,07,17,18,14.80
2021,06,07,17,19,14.80
2021,06,07,17,20,14.80
2021,06,07,17,21,14.80
2021,06,07,17,22,14.70
2021,06,07,17,23,14.60
2021,06,07,17,24,14.60
2021,06,07,17,25,14.60
2021,06,07,17,26,14.60
2021,06,07,17,27,14.50
2021,06,07,17,28,14.50
2021,06,07,17,29,14.50
2021,06,07,17,30,14.60
2021,06,07,17,31,14.70
2021,06,07,17,32,14.70
2021,06,07,17,33,14.80
2021,06,07,17,34,14.80
2021,06,07,17,35,14.80
2021,06,07,17,36,14.70
2021,06,07,17,37,14.60
2021,06,07,17,38,14.60
2021,06,07,17,39,14.60
2021,06,07,17,40,14.70